Notices

What's New in latest Release from April 7th, 2021:

- Updated Glossary, including Speed of Maximum Gust, and Total Hourly Precipitation

- Updated national and regional climate services offices contacts and prices information

- Addition of station inventory lists for 1981-2010, 1971-2000, and 1961-1990 Normals.

If you haven't already, please take our survey and provide feedback about our website: https://eccc.sondage-survey.ca/f/LanguageSelection.aspx?s=442ca660-fcf1-47c0-95a9-59707d6fd709

Hourly Data Report for March 09, 2018

MIRAMICHI RCS
NEW BRUNSWICK

47°00'34.000" N
65°27'54.000" W
33.00 m
8100989
71744
ACQ

Download Data

Hourly Data (March 2018)
Hourly Data Report for March 9, 2018
TIME
LST
Temp Definition
°C
Dew Point Definition
°C
Rel Hum Definition
%
Precip. Amount Definition
mm

Wind Dir Definition
10's deg

Wind Spd Definition
km/h
Visibility Definition
km
Stn Press Definition
kPa
Hmdx Definition


Wind Chill Definition


Weather Definition


00:00 -1.1 -1.8 95 0.2 7 27   99.89   -8 LegendNANA
01:00 -0.7 -1.2 96 0.3 8 25   99.88   -7 LegendNANA
02:00 0.2 -0.2 97 0.4 10 25   99.87     LegendNANA
03:00 0.5 -0.1 96 0.0 12 19   99.87     LegendNANA
04:00 0.5 -0.2 95 0.2 12 18   99.92     LegendNANA
05:00 0.5 -0.3 94 0.2 11 18   99.96     LegendNANA
06:00 0.3 -0.5 95 0.0 10 18   100.03     LegendNANA
07:00 0.3 -0.4 95 0.0 11 16   100.08     LegendNANA
08:00 0.4 -0.5 94 0.0 11 13   100.16     LegendNANA
09:00 0.7 -0.3 93 0.0 11 11   100.14     LegendNANA
10:00 1.1 -0.2 92 0.0 9 13   100.14     LegendNANA
11:00 1.0 -0.3 91 0.0 9 17   100.16     LegendNANA
12:00 1.1 -0.3 90 0.0 9 17   100.12     LegendNANA
13:00 1.6 0.0 89 0.0 8 14   99.99     LegendNANA
14:00 0.9 0.1 94 0.0 5 13   99.95     LegendNANA
15:00 0.3 -0.2 97 0.0 5 13   99.94     LegendNANA
16:00 -0.1 -0.4 98 0.0 5 17   99.89   -5 LegendNANA
17:00 -0.2 -0.8 96 0.0 3 15   99.78   -5 LegendNANA
18:00 -0.6 -1.3 95 0.5 4 18   99.68   -6 LegendNANA
19:00 -0.9 -1.5 95 0.2 4 17   99.62   -6 LegendNANA
20:00 -1.4 -2.1 95 1.7 4 22   99.52   -7 LegendNANA
21:00 -1.5 -2.3 94 1.6 3 19   99.38   -7 LegendNANA
22:00 -1.6 -2.3 95 1.9 3 24   99.20   -8 LegendNANA
23:00 -1.6 -2.5 94 1.3 3 24   99.05   -8 LegendNANA

Notes on Data Quality.

Legend

  • E = Estimated
  • M = Missing
  • NA = Not Available*
  • [empty] = Indicates an unobserved value
Date modified: